Location: Albany
(35.0170°S, 117.8920°E)
Time: 23:22:16
(UTC+08:00)

Tiros 1 - All Passes

Search period start: 23 January 2021 00:00
Search period end: 02 February 2021 00:00
Orbit: 630 x 663 km, 48.4° (Epoch: 23 January)

Date Brightness Start Highest point End Pass type
(mag) Time Alt. Az. Time Alt. Az. Time Alt. Az.
23 Jan - 05:05:04 10° NNW 05:09:23 35° NE 05:13:47 10° ESE daylight
23 Jan - 06:46:55 10° WNW 06:51:32 44° SSW 06:56:12 10° SE daylight
23 Jan - 08:31:19 10° SW 08:34:42 18° S 08:38:07 10° SE daylight
23 Jan - 10:15:00 10° SSW 10:18:23 18° S 10:21:46 10° SE daylight
23 Jan - 11:56:54 10° SW 12:01:34 44° SSE 12:06:10 10° ENE daylight
23 Jan - 13:39:18 10° WSW 13:43:43 35° NW 13:48:03 10° NNE daylight
24 Jan - 03:51:34 10° NNE 03:53:38 13° NE 03:55:45 10° E visible
24 Jan - 05:30:27 10° NW 05:35:14 83° NE 05:40:07 10° SE daylight
24 Jan - 07:13:50 10° WSW 07:17:53 26° SSW 07:22:00 10° SE daylight
24 Jan - 08:58:20 10° SW 09:01:25 16° S 09:04:30 10° SE daylight
24 Jan - 10:40:56 10° SW 10:44:58 25° SSE 10:48:59 10° ESE daylight
24 Jan - 12:22:48 10° SW 12:27:41 90° SSE 12:32:30 10° NE daylight
24 Jan - 14:06:45 10° W 14:09:20 14° NW 14:11:54 10° NNW daylight
25 Jan - 04:15:01 10° NNW 04:19:14 32° NE 04:23:31 10° ESE visible
25 Jan - 05:56:41 10° WNW 06:01:19 47° SSW 06:06:02 10° SE daylight
25 Jan - 07:41:01 10° WSW 07:44:27 19° SSW 07:47:55 10° SSE daylight
25 Jan - 09:24:47 10° SW 09:28:07 18° S 09:31:28 10° SE daylight
25 Jan - 11:06:44 10° SW 11:11:21 41° SSE 11:15:56 10° E daylight
25 Jan - 12:49:03 10° WSW 12:53:33 39° NW 12:58:00 10° NNE daylight
26 Jan - 03:02:03 10° NE 03:03:31 11° NE 03:04:59 10° ENE visible
26 Jan - 04:40:18 10° NW 04:45:03 76° NE 04:49:54 10° SE visible
26 Jan - 06:23:32 10° W 06:27:39 27° SSW 06:31:49 10° SE daylight
26 Jan - 08:08:04 10° SW 08:11:09 16° S 08:14:14 10° SE daylight
26 Jan - 09:50:46 10° SW 09:54:43 24° SSE 09:58:41 10° ESE daylight
26 Jan - 11:32:36 10° SW 11:37:30 83° SE 11:42:19 10° NE daylight
26 Jan - 13:16:16 10° W 13:19:12 16° NW 13:22:07 10° NNW daylight
27 Jan - 03:25:01 10° NNW 03:29:05 29° NE 03:33:14 10° ESE visible
27 Jan - 05:06:27 10° WNW 05:11:07 51° SSW 05:15:51 10° SE daylight
27 Jan - 06:50:42 10° WSW 06:54:12 19° SSW 06:57:43 10° SSE daylight
27 Jan - 08:34:35 10° SW 08:37:52 18° S 08:41:09 10° SE daylight
27 Jan - 10:16:34 10° SW 10:21:08 39° SSE 10:25:40 10° E daylight
27 Jan - 11:58:48 10° WSW 12:03:24 43° NW 12:07:56 10° NNE daylight
28 Jan - 03:50:09 10° NW 03:54:53 70° NE 03:59:42 10° ESE visible
28 Jan - 05:33:14 10° W 05:37:25 29° SSW 05:41:39 10° SE daylight
28 Jan - 07:17:48 10° SW 07:20:53 16° S 07:23:59 10° SE daylight
28 Jan - 09:00:35 10° SW 09:04:29 23° SSE 09:08:22 10° ESE daylight
28 Jan - 10:42:25 10° SW 10:47:18 77° SE 10:52:08 10° ENE daylight
28 Jan - 12:25:50 10° W 12:29:04 18° NW 12:32:16 10° N daylight
29 Jan - 02:35:01 10° N 02:38:56 26° NE 02:42:56 10° ESE visible
29 Jan - 04:16:14 10° WNW 04:20:55 55° SSW 04:25:41 10° SE visible
29 Jan - 06:00:24 10° WSW 06:03:56 20° SSW 06:07:31 10° SSE daylight
29 Jan - 07:44:23 10° SW 07:47:36 17° S 07:50:50 10° SE daylight
29 Jan - 09:26:24 10° SW 09:30:55 36° SSE 09:35:24 10° E daylight
29 Jan - 11:08:33 10° WSW 11:13:13 47° NW 11:17:51 10° NNE daylight
30 Jan - 03:00:02 10° NW 03:04:43 63° NE 03:09:29 10° ESE visible
30 Jan - 04:42:57 10° W 04:47:11 30° SSW 04:51:28 10° SE visible
30 Jan - 06:27:31 10° SW 06:30:37 17° S 06:33:44 10° SE daylight
30 Jan - 08:10:25 10° SW 08:14:14 22° SSE 08:18:02 10° ESE daylight
30 Jan - 09:52:14 10° SW 09:57:07 71° SE 10:01:56 10° ENE daylight
30 Jan - 11:35:27 10° W 11:38:55 20° NW 11:42:22 10° N daylight
31 Jan - 01:45:03 10° N 01:48:48 24° NE 01:52:37 10° ESE visible
31 Jan - 03:26:01 10° WNW 03:30:43 59° SSW 03:35:30 10° SE visible
31 Jan - 05:10:06 10° WSW 05:13:42 20° SSW 05:17:19 10° SSE daylight
31 Jan - 06:54:10 10° SW 06:57:21 17° S 07:00:31 10° SE daylight
31 Jan - 08:36:14 10° SW 08:40:41 34° SSE 08:45:07 10° E daylight
31 Jan - 10:18:19 10° WSW 10:23:03 52° NW 10:27:44 10° NNE daylight
01 Feb - 02:09:55 10° NW 02:14:32 58° NE 02:19:16 10° ESE visible
01 Feb - 03:52:41 10° W 03:56:58 32° SSW 04:01:18 10° SE visible
01 Feb - 05:37:15 10° SW 05:40:22 17° S 05:43:29 10° SE daylight
01 Feb - 07:20:15 10° SW 07:23:59 21° SSE 07:27:43 10° ESE daylight
01 Feb - 09:02:03 10° SW 09:06:54 65° SE 09:11:43 10° ENE daylight
01 Feb - 10:45:05 10° W 10:48:47 22° NW 10:52:26 10° N daylight
